Rock Hill, SC

10:32 AM EST on December 06, 2016 (GMT -0500)
Rock Hill-York County-Bryant

Weather History for KUZA - September, 2013

Change the Weather History Date:

Monday, September 30, 2013

  Actual Average Record
Temperature  
Mean Temperature 64 °F -  
Max Temperature 75 °F 76 °F 89 °F (1954)
Min Temperature 52 °F 56 °F 37 °F (1967)
Degree Days  
Heating Degree Days 2    
Growing Degree Days 14 (Base 50)    
Moisture  
Dew Point 55 °F    
Average Humidity 79    
Maximum Humidity 100    
Minimum Humidity 45    
Precipitation  
Precipitation 0.00 in - - ()
Sea Level Pressure  
Sea Level Pressure 30.06 in    
Wind  
Wind Speed 1 mph (East)    
Max Wind Speed 7 mph    
Max Gust Speed -    
Visibility 9 miles    
Events      
Averages and records for this station are not official NWS values.
T = Trace of Precipitation, MM = Missing Value Source: NWS Daily Summary

Daily Weather History Graph

Daily Weather History Graph

Search for Another Location

Airport or City:

Trip Planner

Search our weather history database for the weather conditions in past years. The results will help you decide how hot, cold, wet, or windy it might be!

Date:

Astronomy

Sep. 30, 2013 Rise Set
Actual Time 7:18 AM EDT 7:09 PM EDT
Civil Twilight 6:53 AM EDT 7:34 PM EDT
Nautical Twilight 6:23 AM EDT 8:03 PM EDT
Astronomical Twilight 5:54 AM EDT 8:33 PM EDT
Moon 3:02 AM EDT (9/30) 4:31 PM EDT (9/30)
Length of Visible Light 12h 41m
Length of Day
11h 50m
Waning Crescent, 19% of the Moon is Illuminated
Sep 30
Waning Crescent
Oct 4
New
Oct 11
First Quarter
Oct 18
Full
Oct 26
Last Quarter

Hourly Weather History & Observations

Time (EDT) Temp. Dew Point Humidity Pressure Visibility Wind Dir Wind Speed Gust Speed Precip Events Conditions
12:54 AM 55.0 °F 54.0 °F 96% 30.05 in 10.0 mi Calm Calm - N/A   Clear
1:54 AM 53.1 °F 52.0 °F 96% 30.06 in 6.0 mi Calm Calm - N/A   Clear
2:54 AM 54.0 °F 54.0 °F 100% 30.05 in 7.0 mi Calm Calm - N/A   Clear
3:54 AM 57.0 °F 55.0 °F 93% 30.04 in 10.0 mi Calm Calm - N/A   Clear
4:54 AM 55.0 °F 54.0 °F 96% 30.06 in 9.0 mi Calm Calm - N/A   Clear
5:54 AM 53.1 °F 53.1 °F 100% 30.06 in 3.0 mi Calm Calm - N/A   Clear
6:54 AM 52.0 °F 52.0 °F 100% 30.08 in 5.0 mi Calm Calm - N/A   Clear
7:54 AM 54.0 °F 54.0 °F 100% 30.10 in 7.0 mi Calm Calm - N/A   Clear
8:54 AM 59.0 °F 57.9 °F 96% 30.11 in 8.0 mi Calm Calm - N/A   Clear
9:54 AM 64.9 °F 57.9 °F 78% 30.11 in 10.0 mi Calm Calm - N/A   Clear
10:54 AM 69.1 °F 57.0 °F 65% 30.10 in 10.0 mi Variable 3.5 mph - N/A   Clear
11:54 AM 72.0 °F 53.1 °F 51% 30.09 in 10.0 mi SE 6.9 mph - N/A   Clear
12:54 PM 73.0 °F 54.0 °F 51% 30.08 in 10.0 mi Variable 5.8 mph - N/A   Partly Cloudy
1:54 PM 73.9 °F 54.0 °F 50% 30.06 in 10.0 mi North 4.6 mph - N/A   Partly Cloudy
2:54 PM 75.0 °F 54.0 °F 48% 30.03 in 10.0 mi ESE 3.5 mph - N/A   Scattered Clouds
3:54 PM 73.0 °F 53.1 °F 49% 30.01 in 10.0 mi Calm Calm - N/A   Scattered Clouds
4:54 PM 75.9 °F 53.1 °F 45% 30.01 in 10.0 mi Calm Calm - N/A   Partly Cloudy
5:54 PM 75.0 °F 54.0 °F 48% 30.02 in 10.0 mi NNW 3.5 mph - N/A   Clear
6:54 PM 69.1 °F 57.9 °F 68% 30.03 in 10.0 mi Calm Calm - N/A   Clear
7:54 PM 62.1 °F 57.0 °F 84% 30.05 in 10.0 mi Calm Calm - N/A   Clear
8:54 PM 60.1 °F 57.0 °F 90% 30.06 in 10.0 mi Calm Calm - N/A   Clear
9:54 PM 57.9 °F 55.9 °F 93% 30.07 in 10.0 mi Calm Calm - N/A   Clear
10:54 PM 57.0 °F 55.9 °F 96% 30.08 in 10.0 mi Calm Calm - N/A   Clear
11:54 PM 55.0 °F 55.0 °F 100% 30.08 in 10.0 mi SSW 3.5 mph - N/A   Clear